Regional Weather Roundup
Issued by NWS

Home | Current Version | Previous Version | Text Only | Print | Product List | Glossary Off
Versions: 1 2 3 4 5 6 7 8 9 10 11 12 13 14 15 16 17 18 19 20 21 22 23 24 25 26 27 28 29 30 31 32 33 34 35 36 37 38 39 40 41 42 43 44 45 46 47 48

000
ASUS45 KTFX 271710
RWRMT
MONTANA REGIONAL WEATHER ROUNDUP
NATIONAL WEATHER SERVICE GREAT FALLS MT
1100 AM MDT WED MAY 27 2015

NOTE: "FAIR" INDICATES FEW OR NO CLOUDS BELOW 12000 FEET WITH NO
SIGNIFICANT WEATHER AND/OR OBSTRUCTIONS TO VISIBILITY.

MTZ001>007-043-271800-
WEST OF THE DIVIDE

CITY           SKY/WX    TMP DP  RH WIND       PRES   REMARKS
KALISPELL      CLOUDY    58  47  66 SW3       30.03S
MISSOULA       PTSUNNY   57  45  64 S6        30.04F
BUTTE          PTSUNNY   55  42  61 N6        30.05F
MULLAN PASS    PTSUNNY   49  43  80 CALM      30.08R
DEER LODGE       N/A     54  46  76 NE5       30.09F
EUREKA           N/A     61  48  63 SE5       30.05S
HAMILTON         N/A     57  45  62 SW5       30.04F
LIBBY            N/A     52  48  87 CALM      30.06S
$$

MTZ008-052>055-271800-
SOUTHWEST MONTANA

CITY           SKY/WX    TMP DP  RH WIND       PRES   REMARKS
BOZEMAN        MOSUNNY   56  46  69 CALM      30.05F
DILLON         MOSUNNY   56  43  61 CALM      30.03F
W YELLOWSTONE  CLOUDY    50  39  66 SW7       30.10F
$$

MTZ009-010-012-014-046-048-049-054-271800-
EAST SLOPES AND CENTRAL MONTANA

CITY           SKY/WX    TMP DP  RH WIND       PRES   REMARKS
CUT BANK       MOSUNNY   60  46  59 NW8       30.02F
GREAT FALLS    LGT RAIN  52  50  93 SW9       30.03S
MALMSTROM AFB  CLOUDY    55  49  81 SW13G20   30.03F
HELENA         LGT RAIN  52  47  83 CALM      30.05S
$$

MTZ011-013-016-021-045-047-050-051-271800-
NORTH CENTRAL MONTANA

CITY           SKY/WX    TMP DP  RH WIND       PRES   REMARKS
HAVRE          MOSUNNY   68  50  52 NW6       29.96S
LEWISTOWN      CLOUDY    58  48  69 W9        30.02F
N BAR RANCH    PTSUNNY   55  50  82 W5        30.04S
CHINOOK          N/A     66  52  59 W3        29.96R
FORT BENTON      N/A     64  52  63 SW13      30.00S
$$

MTZ017>020-022>027-061-062-271800-
NORTHEAST MONTANA

CITY           SKY/WX    TMP DP  RH WIND       PRES   REMARKS
GLASGOW        PTSUNNY   66  53  63 E12       29.94F
JORDAN           N/A     66  51  58 W6        29.95S
SIDNEY         PTSUNNY   72  50  46 CALM      29.93R
WOLF POINT     RAIN      58  55  90 VRB3      29.97R FOG
PLENTYWOOD       N/A     68  52  56 W9        29.94R
POPLAR           N/A     61  54  77 W3        29.96S
$$

MTZ028>42-056>058-271800-
SOUTHCENTRAL AND SOUTHEAST MONTANA

CITY           SKY/WX    TMP DP  RH WIND       PRES   REMARKS
BAKER          PTSUNNY   72  52  49 S15       29.95S
BILLINGS       PTSUNNY   63  52  67 E3        30.00S
LIVINGSTON     PTSUNNY   60  47  61 N7        30.03F
MILES CITY     LGT RAIN  58  56  93 NW12      29.96R FOG
BIG TIMBER       N/A     57  46  67 W13G18    30.02F
FORSYTH          N/A     61  57  88 W3        29.98R
$$

REGIONAL REPORTS...DAKOTAS

CITY           SKY/WX    TMP DP  RH WIND       PRES   REMARKS
WILLISTON      PTSUNNY   76  47  35 S8        29.92F
MINOT          SUNNY     72  50  45 E8        29.96R
DICKINSON      MOSUNNY   76  50  40 S15G24    29.93F
BEACH          FAIR      72  50  46 S14G20    29.94S
CROSBY         FAIR      68  50  52 E15       29.96R
WATFORD CITY   FAIR      75  46  35 SE12      29.91S
BISMARCK       SUNNY     77  50  38 S6        29.97S
GRAND FORKS    MOSUNNY   66  48  52 N13G18    29.96R
FARGO          SUNNY     74  55  51 N6        29.95R
BUFFALO SD       N/A     71  52  50 VRB7      29.90S
RAPID CITY     PTSUNNY   69  55  60 S14       29.99F
$$

REGIONAL REPORTS...WYOMING/IDAHO/WASHINGTON

CITY           SKY/WX    TMP DP  RH WIND       PRES   REMARKS
GILLETTE       PTSUNNY   65  51  60 S9        29.98F
SHERIDAN       PTSUNNY   64  48  56 CALM      29.99F
BUFFALO WY     PTSUNNY   60  49  66 N7        30.02S
CODY           MOSUNNY   59  48  67 NE9       30.03S
YELLOWSTONE LA   N/A     44  38  79 VRB3      30.17S
IDAHO FALLS    PTSUNNY   57  48  72 VRB3      30.07F
SALMON         CLOUDY    55  46  71 NW5       30.04S
BOISE          MOSUNNY   65  48  54 SW5       30.01F
SPOKANE        PTSUNNY   63  50  62 N5        30.03S
$$

REGIONAL REPORTS...ALBERTA

CITY           SKY/WX    TMP DP  RH WIND       PRES   REMARKS
EDMONTON       PTSUNNY   64  48  55 SW2       29.96S
CALGARY        PTSUNNY   63  45  51 CALM      30.01F
LETHBRIDGE     PTSUNNY   63  50  63 NW9       30.01F
MEDICINE HAT   CLOUDY    61  50  67 W8        29.95F
$$

REGIONAL REPORTS...SASKATCHEWAN

CITY           SKY/WX    TMP DP  RH WIND       PRES   REMARKS
SWIFT CURRENT  SUNNY     68  48  49 E17G26    29.96F
REGINA         PTSUNNY   64  48  55 E14G20    29.99F
SASKATOON      MOSUNNY   57  39  51 E7        30.05S
$$


USA.gov is the U.S. government's official web portal to all federal, state and local government web resources and services.